Zurück zum Katalog

STARLINK-35885

AktivKommunikationVLEO
NORAD 66890·PAYLOAD·🇺🇸 United States

Gestartet Dec 4, 2025 von Vandenberg Space Force Base

Loading…

Nächste Überflüge (nächste 24 Stunden)

TLE

AktuellSource: CelesTrak SupGP

Epoche: Sep 14, 2026, 23:12 UTC

1 66890C 25283N   26257.96715278  .00005056  00000+0  14934-3 0  2572
2 66890  53.1583 221.5688 0001340  89.6587 199.6987 15.34397179    18

Verfolge STARLINK-35885 in Echtzeit mit AllMySat

Download on the App Store